Wetterdaten: Montag, 17.05.2010
Datum Zeit Temp. A. Feuchte A. Luftdruck Regen Wind Richtung Richtung Sonnenschein UV Solar Windben
17.05.2010 00:00 7,8 C 76 % 1016,5 hPa 0,0 mm 0,0 km/h (0 Bft) N 0 0 min 0 UV-I 0 W/m 0,0 km/h (0 Bft)
17.05.2010 00:10 7,6 C 76 % 1016,6 hPa 0,0 mm 0,0 km/h (0 Bft) N 0 0 min 0 UV-I 0 W/m 0,0 km/h (0 Bft)
17.05.2010 00:20 7,6 C 75 % 1016,6 hPa 0,0 mm 0,0 km/h (0 Bft) N 0 0 min 0 UV-I 0 W/m 0,0 km/h (0 Bft)
17.05.2010 00:30 7,4 C 76 % 1016,7 hPa 0,0 mm 0,0 km/h (0 Bft) N 0 0 min 0 UV-I 0 W/m 0,0 km/h (0 Bft)
17.05.2010 00:40 7,3 C 77 % 1016,7 hPa 0,0 mm 0,0 km/h (0 Bft) N 0 0 min 0 UV-I 0 W/m 0,0 km/h (0 Bft)
17.05.2010 00:50 6,9 C 78 % 1016,8 hPa 0,0 mm 0,0 km/h (0 Bft) N 0 0 min 0 UV-I 0 W/m 0,0 km/h (0 Bft)
17.05.2010 01:00 6,3 C 81 % 1016,9 hPa 0,0 mm 0,0 km/h (0 Bft) N 0 0 min 0 UV-I 0 W/m 0,0 km/h (0 Bft)
17.05.2010 01:10 6,1 C 82 % 1016,9 hPa 0,0 mm 0,0 km/h (0 Bft) N 0 0 min 0 UV-I 0 W/m 0,0 km/h (0 Bft)
17.05.2010 01:20 6,1 C 81 % 1017,1 hPa 0,0 mm 0,0 km/h (0 Bft) N 0 0 min 0 UV-I 0 W/m 0,0 km/h (0 Bft)
17.05.2010 01:30 6,0 C 81 % 1017,0 hPa 0,0 mm 0,0 km/h (0 Bft) N 0 0 min 0 UV-I 0 W/m 0,0 km/h (0 Bft)
17.05.2010 01:40 5,7 C 82 % 1017,0 hPa 0,0 mm 0,0 km/h (0 Bft) N 0 0 min 0 UV-I 0 W/m 0,0 km/h (0 Bft)
17.05.2010 01:50 5,6 C 83 % 1017,1 hPa 0,0 mm 0,0 km/h (0 Bft) N 0 0 min 0 UV-I 0 W/m 0,0 km/h (0 Bft)
17.05.2010 02:00 5,4 C 84 % 1017,1 hPa 0,0 mm 0,0 km/h (0 Bft) N 0 0 min 0 UV-I 0 W/m 0,0 km/h (0 Bft)
17.05.2010 02:10 5,2 C 84 % 1017,1 hPa 0,0 mm 0,0 km/h (0 Bft) N 0 0 min 0 UV-I 0 W/m 0,0 km/h (0 Bft)
17.05.2010 02:20 5,1 C 84 % 1017,2 hPa 0,0 mm 0,0 km/h (0 Bft) N 0 0 min 0 UV-I 0 W/m 0,0 km/h (0 Bft)
17.05.2010 02:30 4,8 C 85 % 1017,3 hPa 0,0 mm 0,0 km/h (0 Bft) N 0 0 min 0 UV-I 0 W/m 0,0 km/h (0 Bft)
17.05.2010 02:40 4,7 C 86 % 1017,3 hPa 0,0 mm 0,0 km/h (0 Bft) N 0 0 min 0 UV-I 0 W/m 0,0 km/h (0 Bft)
17.05.2010 02:50 4,6 C 86 % 1017,3 hPa 0,0 mm 0,0 km/h (0 Bft) N 0 0 min 0 UV-I 0 W/m 0,0 km/h (0 Bft)
17.05.2010 03:00 4,4 C 87 % 1017,3 hPa 0,0 mm 0,0 km/h (0 Bft) N 0 0 min 0 UV-I 0 W/m 0,0 km/h (0 Bft)
17.05.2010 03:10 4,4 C 87 % 1017,3 hPa 0,0 mm 0,0 km/h (0 Bft) N 0 0 min 0 UV-I 0 W/m 0,0 km/h (0 Bft)
17.05.2010 03:20 4,4 C 86 % 1017,3 hPa 0,0 mm 0,0 km/h (0 Bft) N 0 0 min 0 UV-I 0 W/m 0,0 km/h (0 Bft)
17.05.2010 03:30 4,5 C 87 % 1017,4 hPa 0,0 mm 0,0 km/h (0 Bft) N 0 0 min 0 UV-I 0 W/m 0,0 km/h (0 Bft)
17.05.2010 03:40 4,5 C 87 % 1017,3 hPa 0,0 mm 0,0 km/h (0 Bft) N 0 0 min 0 UV-I 0 W/m 0,0 km/h (0 Bft)
17.05.2010 03:50 4,3 C 87 % 1017,3 hPa 0,0 mm 0,0 km/h (0 Bft) N 0 0 min 0 UV-I 0 W/m 0,0 km/h (0 Bft)
17.05.2010 04:00 4,3 C 87 % 1017,3 hPa 0,0 mm 0,0 km/h (0 Bft) N 0 0 min 0 UV-I 0 W/m 0,0 km/h (0 Bft)
17.05.2010 04:10 4,2 C 87 % 1017,3 hPa 0,0 mm 0,0 km/h (0 Bft) N 0 0 min 0 UV-I 0 W/m 0,0 km/h (0 Bft)
17.05.2010 04:20 4,1 C 87 % 1017,5 hPa 0,0 mm 0,0 km/h (0 Bft) N 0 0 min 0 UV-I 0 W/m 0,0 km/h (0 Bft)
17.05.2010 04:30 4,1 C 88 % 1017,5 hPa 0,0 mm 0,0 km/h (0 Bft) N 0 0 min 0 UV-I 0 W/m 0,0 km/h (0 Bft)
17.05.2010 04:40 3,9 C 88 % 1017,6 hPa 0,0 mm 0,0 km/h (0 Bft) N 0 0 min 0 UV-I 0 W/m 0,0 km/h (0 Bft)
17.05.2010 04:50 4,1 C 88 % 1017,5 hPa 0,0 mm 0,0 km/h (0 Bft) N 0 0 min 0 UV-I 0 W/m 0,0 km/h (0 Bft)
17.05.2010 05:00 4,3 C 88 % 1017,5 hPa 0,0 mm 0,0 km/h (0 Bft) N 0 0 min 0 UV-I 0 W/m 0,0 km/h (0 Bft)
17.05.2010 05:10 4,6 C 88 % 1017,5 hPa 0,0 mm 0,0 km/h (0 Bft) N 0 0 min 0 UV-I 0 W/m 0,0 km/h (0 Bft)
17.05.2010 05:20 4,8 C 88 % 1017,6 hPa 0,0 mm 0,0 km/h (0 Bft) N 0 0 min 0 UV-I 0 W/m 0,0 km/h (0 Bft)
17.05.2010 05:30 4,9 C 88 % 1017,7 hPa 0,0 mm 0,0 km/h (0 Bft) W 270 0 min 0 UV-I 0 W/m 1,6 km/h (1 Bft)
17.05.2010 05:40 5,2 C 88 % 1017,7 hPa 0,0 mm 0,0 km/h (0 Bft) N 0 0 min 0 UV-I 0 W/m 0,0 km/h (0 Bft)
17.05.2010 05:50 5,4 C 87 % 1017,8 hPa 0,0 mm 0,0 km/h (0 Bft) N 0 0 min 0 UV-I 5 W/m 0,0 km/h (0 Bft)
17.05.2010 06:00 5,7 C 87 % 1018,0 hPa 0,0 mm 0,0 km/h (0 Bft) N 0 0 min 0 UV-I 9 W/m 0,0 km/h (0 Bft)
17.05.2010 06:10 5,9 C 87 % 1017,9 hPa 0,0 mm 0,0 km/h (0 Bft) N 0 0 min 0 UV-I 12 W/m 0,0 km/h (0 Bft)
17.05.2010 06:20 6,2 C 86 % 1018,0 hPa 0,0 mm 0,0 km/h (0 Bft) N 0 0 min 0 UV-I 18 W/m 0,0 km/h (0 Bft)
17.05.2010 06:30 6,4 C 86 % 1018,0 hPa 0,0 mm 0,0 km/h (0 Bft) N 0 0 min 0 UV-I 21 W/m 0,0 km/h (0 Bft)
17.05.2010 06:40 6,7 C 85 % 1018,0 hPa 0,0 mm 0,0 km/h (0 Bft) N 0 0 min 0 UV-I 23 W/m 0,0 km/h (0 Bft)
17.05.2010 06:50 6,9 C 85 % 1018,1 hPa 0,0 mm 0,0 km/h (0 Bft) N 0 0 min 0 UV-I 21 W/m 0,0 km/h (0 Bft)
17.05.2010 07:00 7,1 C 84 % 1018,0 hPa 0,0 mm 0,0 km/h (0 Bft) N 0 0 min 0 UV-I 28 W/m 0,0 km/h (0 Bft)
17.05.2010 07:10 7,2 C 84 % 1018,1 hPa 0,0 mm 0,0 km/h (0 Bft) N 0 0 min 0 UV-I 47 W/m 0,0 km/h (0 Bft)
17.05.2010 07:20 7,4 C 84 % 1018,2 hPa 0,0 mm 0,0 km/h (0 Bft) N 0 0 min 0 UV-I 67 W/m 0,0 km/h (0 Bft)
17.05.2010 07:30 7,8 C 84 % 1018,2 hPa 0,0 mm 0,0 km/h (0 Bft) N 0 0 min 0 UV-I 76 W/m 0,0 km/h (0 Bft)
17.05.2010 07:40 8,1 C 82 % 1018,1 hPa 0,0 mm 0,0 km/h (0 Bft) N 0 0 min 1 UV-I 141 W/m 0,0 km/h (0 Bft)
17.05.2010 07:50 8,6 C 81 % 1018,2 hPa 0,0 mm 0,0 km/h (0 Bft) N 0 0 min 1 UV-I 142 W/m 0,0 km/h (0 Bft)
17.05.2010 08:00 9,1 C 81 % 1018,2 hPa 0,0 mm 0,0 km/h (0 Bft) W 281 0 min 1 UV-I 164 W/m 0,0 km/h (0 Bft)
17.05.2010 08:10 9,1 C 79 % 1018,2 hPa 0,0 mm 0,0 km/h (0 Bft) N 0 0 min 1 UV-I 171 W/m 0,0 km/h (0 Bft)
17.05.2010 08:20 9,3 C 78 % 1018,2 hPa 0,0 mm 0,0 km/h (0 Bft) W 270 0 min 1 UV-I 167 W/m 1,6 km/h (1 Bft)
17.05.2010 08:30 9,7 C 77 % 1018,3 hPa 0,0 mm 1,6 km/h (1 Bft) W 270 0 min 1 UV-I 162 W/m 6,4 km/h (2 Bft)
17.05.2010 08:40 9,9 C 77 % 1018,4 hPa 0,0 mm 1,6 km/h (1 Bft) W-SW 247 0 min 1 UV-I 225 W/m 6,4 km/h (2 Bft)
17.05.2010 08:50 10,3 C 77 % 1018,5 hPa 0,0 mm 1,6 km/h (1 Bft) W-SW 247 0 min 1 UV-I 223 W/m 6,4 km/h (2 Bft)
17.05.2010 09:00 10,6 C 75 % 1018,5 hPa 0,0 mm 4,8 km/h (1 Bft) W 270 0 min 1 UV-I 192 W/m 17,7 km/h (3 Bft)
17.05.2010 09:10 10,7 C 75 % 1018,6 hPa 0,0 mm 3,2 km/h (1 Bft) W-SW 247 0 min 1 UV-I 227 W/m 11,3 km/h (2 Bft)
17.05.2010 09:20 10,9 C 75 % 1018,6 hPa 0,0 mm 3,2 km/h (1 Bft) W 270 10 min 2 UV-I 497 W/m 16,1 km/h (3 Bft)
17.05.2010 09:30 11,5 C 73 % 1018,6 hPa 0,0 mm 3,2 km/h (1 Bft) SW 225 10 min 2 UV-I 517 W/m 11,3 km/h (2 Bft)
17.05.2010 09:40 12,0 C 73 % 1018,6 hPa 0,0 mm 4,8 km/h (1 Bft) W-SW 247 10 min 3 UV-I 585 W/m 14,5 km/h (3 Bft)
17.05.2010 09:50 12,6 C 72 % 1018,6 hPa 0,0 mm 4,8 km/h (1 Bft) W 270 10 min 3 UV-I 629 W/m 16,1 km/h (3 Bft)
17.05.2010 10:00 12,8 C 72 % 1018,6 hPa 0,0 mm 4,8 km/h (1 Bft) W 270 10 min 3 UV-I 821 W/m 11,3 km/h (2 Bft)
17.05.2010 10:10 13,3 C 71 % 1018,6 hPa 0,0 mm 3,2 km/h (1 Bft) W 270 10 min 3 UV-I 462 W/m 14,5 km/h (3 Bft)
17.05.2010 10:20 12,7 C 72 % 1018,6 hPa 0,0 mm 6,4 km/h (2 Bft) W 270 10 min 2 UV-I 411 W/m 17,7 km/h (3 Bft)
17.05.2010 10:30 12,9 C 71 % 1018,6 hPa 0,0 mm 3,2 km/h (1 Bft) W-SW 247 0 min 2 UV-I 327 W/m 14,5 km/h (3 Bft)
17.05.2010 10:40 12,8 C 71 % 1018,7 hPa 0,0 mm 6,4 km/h (2 Bft) W 270 10 min 3 UV-I 406 W/m 17,7 km/h (3 Bft)
17.05.2010 10:50 13,0 C 71 % 1018,7 hPa 0,0 mm 3,2 km/h (1 Bft) W 270 10 min 3 UV-I 480 W/m 16,1 km/h (3 Bft)
17.05.2010 11:00 13,1 C 71 % 1018,7 hPa 0,0 mm 6,4 km/h (2 Bft) W 270 0 min 2 UV-I 299 W/m 17,7 km/h (3 Bft)
17.05.2010 11:10 13,2 C 71 % 1018,7 hPa 0,0 mm 4,8 km/h (1 Bft) W 270 0 min 2 UV-I 274 W/m 16,1 km/h (3 Bft)
17.05.2010 11:20 13,2 C 70 % 1018,8 hPa 0,0 mm 4,8 km/h (1 Bft) W-SW 247 10 min 4 UV-I 513 W/m 22,5 km/h (4 Bft)
17.05.2010 11:30 13,4 C 70 % 1018,7 hPa 0,0 mm 6,4 km/h (2 Bft) W 270 10 min 4 UV-I 531 W/m 14,5 km/h (3 Bft)
17.05.2010 11:40 13,3 C 72 % 1018,7 hPa 0,0 mm 6,4 km/h (2 Bft) W 270 10 min 5 UV-I 429 W/m 19,3 km/h (3 Bft)
17.05.2010 11:50 14,1 C 68 % 1018,8 hPa 0,0 mm 4,8 km/h (1 Bft) W 270 10 min 6 UV-I 531 W/m 19,3 km/h (3 Bft)
17.05.2010 12:00 13,7 C 71 % 1018,8 hPa 0,0 mm 8,0 km/h (2 Bft) W 270 0 min 3 UV-I 341 W/m 16,1 km/h (3 Bft)
17.05.2010 12:10 13,7 C 70 % 1018,9 hPa 0,0 mm 6,4 km/h (2 Bft) W 270 0 min 3 UV-I 388 W/m 17,7 km/h (3 Bft)
17.05.2010 12:20 13,3 C 72 % 1018,9 hPa 0,0 mm 8,0 km/h (2 Bft) W 270 0 min 2 UV-I 230 W/m 20,9 km/h (4 Bft)
17.05.2010 12:30 13,2 C 72 % 1019,0 hPa 0,0 mm 6,4 km/h (2 Bft) W 270 10 min 4 UV-I 496 W/m 16,1 km/h (3 Bft)
17.05.2010 12:40 13,7 C 70 % 1018,9 hPa 0,0 mm 4,8 km/h (1 Bft) W-SW 247 0 min 3 UV-I 410 W/m 16,1 km/h (3 Bft)
17.05.2010 12:50 13,7 C 70 % 1018,9 hPa 0,0 mm 6,4 km/h (2 Bft) SW 225 10 min 4 UV-I 462 W/m 20,9 km/h (4 Bft)
17.05.2010 13:00 13,8 C 69 % 1018,9 hPa 0,0 mm 6,4 km/h (2 Bft) W-SW 247 10 min 4 UV-I 476 W/m 16,1 km/h (3 Bft)
17.05.2010 13:10 13,8 C 69 % 1019,0 hPa 0,0 mm 6,4 km/h (2 Bft) W 270 0 min 3 UV-I 343 W/m 14,5 km/h (3 Bft)
17.05.2010 13:20 13,3 C 73 % 1019,2 hPa 0,0 mm 9,7 km/h (2 Bft) W 270 0 min 1 UV-I 60 W/m 20,9 km/h (4 Bft)
17.05.2010 13:30 12,4 C 80 % 1019,4 hPa 0,0 mm 4,8 km/h (1 Bft) W-NW 292 0 min 1 UV-I 134 W/m 19,3 km/h (3 Bft)
17.05.2010 13:40 11,6 C 83 % 1019,5 hPa 0,0 mm 4,8 km/h (1 Bft) W-NW 292 0 min 2 UV-I 223 W/m 16,1 km/h (3 Bft)
17.05.2010 13:50 11,4 C 84 % 1019,7 hPa 0,0 mm 4,8 km/h (1 Bft) W 270 0 min 2 UV-I 195 W/m 16,1 km/h (3 Bft)
17.05.2010 14:00 11,3 C 85 % 1019,8 hPa 0,0 mm 3,2 km/h (1 Bft) W-NW 292 0 min 1 UV-I 95 W/m 11,3 km/h (2 Bft)
17.05.2010 14:10 11,1 C 85 % 1019,9 hPa 0,0 mm 4,8 km/h (1 Bft) W-NW 292 0 min 1 UV-I 97 W/m 14,5 km/h (3 Bft)
17.05.2010 14:20 10,6 C 85 % 1020,0 hPa 0,3 mm 3,2 km/h (1 Bft) NW 315 0 min 1 UV-I 135 W/m 14,5 km/h (3 Bft)
17.05.2010 14:30 10,2 C 86 % 1020,0 hPa 0,0 mm 3,2 km/h (1 Bft) NW 315 0 min 1 UV-I 144 W/m 9,7 km/h (2 Bft)
17.05.2010 14:40 10,3 C 86 % 1020,1 hPa 0,0 mm 0,0 km/h (0 Bft) NW 315 0 min 1 UV-I 144 W/m 4,8 km/h (1 Bft)
17.05.2010 14:50 10,4 C 86 % 1020,1 hPa 0,3 mm 0,0 km/h (0 Bft) N 360 0 min 1 UV-I 144 W/m 1,6 km/h (1 Bft)
17.05.2010 15:00 10,6 C 85 % 1020,1 hPa 0,0 mm 0,0 km/h (0 Bft) N 360 0 min 2 UV-I 227 W/m 3,2 km/h (1 Bft)
17.05.2010 15:10 10,9 C 86 % 1020,1 hPa 0,0 mm 0,0 km/h (0 Bft) N 360 10 min 3 UV-I 492 W/m 1,6 km/h (1 Bft)
17.05.2010 15:20 12,1 C 83 % 1020,0 hPa 0,0 mm 1,6 km/h (1 Bft) O 90 10 min 3 UV-I 598 W/m 4,8 km/h (1 Bft)
17.05.2010 15:30 12,8 C 79 % 1020,0 hPa 0,0 mm 1,6 km/h (1 Bft) O 90 10 min 5 UV-I 923 W/m 6,4 km/h (2 Bft)
17.05.2010 15:40 13,1 C 78 % 1020,0 hPa 0,0 mm 1,6 km/h (1 Bft) W 270 10 min 4 UV-I 912 W/m 8,0 km/h (2 Bft)
17.05.2010 15:50 13,2 C 76 % 1019,8 hPa 0,0 mm 0,0 km/h (0 Bft) W-NW 292 10 min 4 UV-I 870 W/m 6,4 km/h (2 Bft)
17.05.2010 16:00 14,2 C 71 % 1019,8 hPa 0,0 mm 1,6 km/h (1 Bft) S 180 10 min 4 UV-I 522 W/m 6,4 km/h (2 Bft)
17.05.2010 16:10 13,8 C 74 % 1019,7 hPa 0,0 mm 1,6 km/h (1 Bft) S 180 10 min 3 UV-I 540 W/m 11,3 km/h (2 Bft)
17.05.2010 16:20 14,1 C 72 % 1019,6 hPa 0,0 mm 1,6 km/h (1 Bft) W-NW 292 10 min 4 UV-I 919 W/m 8,0 km/h (2 Bft)
17.05.2010 16:30 14,9 C 69 % 1019,7 hPa 0,0 mm 1,6 km/h (1 Bft) SW 225 10 min 3 UV-I 821 W/m 6,4 km/h (2 Bft)
17.05.2010 16:40 15,3 C 67 % 1019,6 hPa 0,0 mm 1,6 km/h (1 Bft) S-SW 202 10 min 3 UV-I 793 W/m 8,0 km/h (2 Bft)
17.05.2010 16:50 14,9 C 68 % 1019,6 hPa 0,0 mm 3,2 km/h (1 Bft) W-SW 247 10 min 3 UV-I 691 W/m 9,7 km/h (2 Bft)
17.05.2010 17:00 14,7 C 69 % 1019,5 hPa 0,0 mm 0,0 km/h (0 Bft) S-SW 202 0 min 2 UV-I 290 W/m 4,8 km/h (1 Bft)
17.05.2010 17:10 14,3 C 69 % 1019,6 hPa 0,0 mm 1,6 km/h (1 Bft) W 270 0 min 1 UV-I 179 W/m 6,4 km/h (2 Bft)
17.05.2010 17:20 13,9 C 68 % 1019,5 hPa 0,0 mm 1,6 km/h (1 Bft) W-NW 292 10 min 1 UV-I 339 W/m 8,0 km/h (2 Bft)
17.05.2010 17:30 14,2 C 69 % 1019,5 hPa 0,0 mm 1,6 km/h (1 Bft) W-SW 247 10 min 2 UV-I 548 W/m 6,4 km/h (2 Bft)
17.05.2010 17:40 14,6 C 68 % 1019,6 hPa 0,0 mm 0,0 km/h (0 Bft) NW 315 0 min 1 UV-I 139 W/m 6,4 km/h (2 Bft)
17.05.2010 17:50 14,1 C 69 % 1019,6 hPa 0,0 mm 1,6 km/h (1 Bft) W-NW 292 0 min 1 UV-I 130 W/m 6,4 km/h (2 Bft)
17.05.2010 18:00 13,8 C 70 % 1019,7 hPa 0,0 mm 1,6 km/h (1 Bft) W 270 0 min 1 UV-I 83 W/m 9,7 km/h (2 Bft)
17.05.2010 18:10 13,6 C 71 % 1019,7 hPa 0,0 mm 1,6 km/h (1 Bft) SW 225 0 min 0 UV-I 88 W/m 8,0 km/h (2 Bft)
17.05.2010 18:20 13,4 C 73 % 1019,8 hPa 0,0 mm 1,6 km/h (1 Bft) SW 225 0 min 1 UV-I 109 W/m 11,3 km/h (2 Bft)
17.05.2010 18:30 13,3 C 73 % 1019,9 hPa 0,0 mm 3,2 km/h (1 Bft) SW 225 0 min 1 UV-I 121 W/m 9,7 km/h (2 Bft)
17.05.2010 18:40 12,9 C 68 % 1019,9 hPa 0,0 mm 6,4 km/h (2 Bft) W-SW 247 0 min 1 UV-I 120 W/m 20,9 km/h (4 Bft)
17.05.2010 18:50 12,4 C 65 % 1019,9 hPa 0,0 mm 3,2 km/h (1 Bft) S-SW 202 0 min 1 UV-I 90 W/m 19,3 km/h (3 Bft)
17.05.2010 19:00 12,0 C 66 % 1019,9 hPa 0,0 mm 3,2 km/h (1 Bft) SW 225 0 min 0 UV-I 62 W/m 16,1 km/h (3 Bft)
17.05.2010 19:10 11,7 C 68 % 1019,9 hPa 0,0 mm 1,6 km/h (1 Bft) S-SW 202 0 min 0 UV-I 44 W/m 8,0 km/h (2 Bft)
17.05.2010 19:20 11,4 C 72 % 1020,3 hPa 0,0 mm 3,2 km/h (1 Bft) SW 225 0 min 0 UV-I 21 W/m 14,5 km/h (3 Bft)
17.05.2010 19:30 11,1 C 74 % 1020,6 hPa 0,0 mm 6,4 km/h (2 Bft) W 270 0 min 0 UV-I 9 W/m 19,3 km/h (3 Bft)
17.05.2010 19:40 10,8 C 75 % 1020,6 hPa 0,0 mm 6,4 km/h (2 Bft) W-NW 292 0 min 0 UV-I 14 W/m 20,9 km/h (4 Bft)
17.05.2010 19:50 10,8 C 79 % 1020,6 hPa 0,3 mm 4,8 km/h (1 Bft) W 270 0 min 0 UV-I 18 W/m 16,1 km/h (3 Bft)
17.05.2010 20:00 10,6 C 82 % 1020,7 hPa 0,0 mm 3,2 km/h (1 Bft) W 270 0 min 0 UV-I 9 W/m 11,3 km/h (2 Bft)
17.05.2010 20:10 10,3 C 83 % 1020,7 hPa 0,3 mm 4,8 km/h (1 Bft) SW 225 0 min 0 UV-I 12 W/m 9,7 km/h (2 Bft)
17.05.2010 20:20 10,2 C 84 % 1020,9 hPa 0,0 mm 3,2 km/h (1 Bft) W-SW 247 0 min 0 UV-I 18 W/m 14,5 km/h (3 Bft)
17.05.2010 20:30 10,2 C 85 % 1021,0 hPa 0,0 mm 3,2 km/h (1 Bft) W-SW 247 0 min 0 UV-I 12 W/m 9,7 km/h (2 Bft)
17.05.2010 20:40 10,1 C 86 % 1021,1 hPa 0,0 mm 4,8 km/h (1 Bft) W-SW 247 0 min 0 UV-I 11 W/m 19,3 km/h (3 Bft)
17.05.2010 20:50 9,9 C 86 % 1021,1 hPa 0,0 mm 4,8 km/h (1 Bft) W-SW 247 0 min 0 UV-I 0 W/m 11,3 km/h (2 Bft)
17.05.2010 21:00 9,8 C 86 % 1021,3 hPa 0,0 mm 1,6 km/h (1 Bft) SW 225 0 min 0 UV-I 0 W/m 8,0 km/h (2 Bft)
17.05.2010 21:10 9,7 C 87 % 1021,4 hPa 0,0 mm 3,2 km/h (1 Bft) SW 225 0 min 0 UV-I 0 W/m 14,5 km/h (3 Bft)
17.05.2010 21:20 9,6 C 87 % 1021,5 hPa 0,0 mm 3,2 km/h (1 Bft) W-SW 247 0 min 0 UV-I 0 W/m 9,7 km/h (2 Bft)
17.05.2010 21:30 9,6 C 88 % 1021,6 hPa 0,0 mm 3,2 km/h (1 Bft) W 270 0 min 0 UV-I 0 W/m 11,3 km/h (2 Bft)
17.05.2010 21:40 9,4 C 88 % 1021,7 hPa 0,0 mm 3,2 km/h (1 Bft) W-SW 247 0 min 0 UV-I 0 W/m 11,3 km/h (2 Bft)
17.05.2010 21:50 9,3 C 88 % 1021,8 hPa 0,0 mm 1,6 km/h (1 Bft) W-SW 247 0 min 0 UV-I 0 W/m 11,3 km/h (2 Bft)
17.05.2010 22:00 9,3 C 88 % 1021,9 hPa 0,0 mm 1,6 km/h (1 Bft) W 270 0 min 0 UV-I 0 W/m 6,4 km/h (2 Bft)
17.05.2010 22:10 9,2 C 88 % 1022,0 hPa 0,0 mm 3,2 km/h (1 Bft) W-SW 247 0 min 0 UV-I 0 W/m 9,7 km/h (2 Bft)
17.05.2010 22:20 9,2 C 88 % 1022,0 hPa 0,0 mm 3,2 km/h (1 Bft) W-SW 247 0 min 0 UV-I 0 W/m 14,5 km/h (3 Bft)
17.05.2010 22:30 9,1 C 88 % 1022,1 hPa 0,0 mm 1,6 km/h (1 Bft) W-SW 247 0 min 0 UV-I 0 W/m 8,0 km/h (2 Bft)
17.05.2010 22:40 9,1 C 89 % 1022,1 hPa 0,0 mm 0,0 km/h (0 Bft) W-SW 247 0 min 0 UV-I 0 W/m 4,8 km/h (1 Bft)
17.05.2010 22:50 9,1 C 89 % 1022,2 hPa 0,0 mm 1,6 km/h (1 Bft) W-SW 247 0 min 0 UV-I 0 W/m 6,4 km/h (2 Bft)
17.05.2010 23:00 9,2 C 89 % 1022,2 hPa 0,0 mm 3,2 km/h (1 Bft) W 270 0 min 0 UV-I 0 W/m 11,3 km/h (2 Bft)
17.05.2010 23:10 9,2 C 89 % 1022,3 hPa 0,3 mm 6,4 km/h (2 Bft) W 270 0 min 0 UV-I 0 W/m 16,1 km/h (3 Bft)
17.05.2010 23:20 9,2 C 89 % 1022,4 hPa 0,0 mm 3,2 km/h (1 Bft) W 270 0 min 0 UV-I 0 W/m 11,3 km/h (2 Bft)
17.05.2010 23:30 9,1 C 89 % 1022,4 hPa 0,0 mm 4,8 km/h (1 Bft) W 270 0 min 0 UV-I 0 W/m 16,1 km/h (3 Bft)
17.05.2010 23:40 9,1 C 89 % 1022,5 hPa 0,0 mm 1,6 km/h (1 Bft) W-NW 292 0 min 0 UV-I 0 W/m 9,7 km/h (2 Bft)
17.05.2010 23:50 9,2 C 90 % 1022,5 hPa 0,0 mm 3,2 km/h (1 Bft) W 270 0 min 0 UV-I 0 W/m 14,5 km/h (3 Bft)
_ Min-Zeit 04:40 18:50 00:00 - 00:00 - - - - - 00:00
Minimum _ 3,9 C 65 % 1016,5 hPa - 0,0 km/h (0 Bft) - - - - - 0,0 km/h (0 Bft)
_ Max-Zeit 16:40 23:50 23:40 14:20 13:20 - - 09:20 11:50 15:30 11:20
Maximum _ 15,6 C 90 % 1022,5 hPa 0,3 mm 9,7 km/h
W (2 Bft)
- - 10 min 6 UV-I 923 W/m 22,5 km/h
SW (4 Bft)
Durchschnitt _ 9,7 C 80 % 1019,1 hPa #1,3 mm 2,2 km/h (1 Bft) W - #4:50 h 2 UV-I 279 W/m 7,9 km/h (2 Bft)